Weather History for Wolf Point, MT

Change the Weather History Date:

Wednesday, March 20, 2013

  Actual Average Record
Temperature  
Mean Temperature 18 °F -  
Max Temperature 39 °F 46 °F 75 °F (2007)
Min Temperature -3 °F 20 °F -16 °F (2002)
Degree Days  
Heating Degree Days 47    
Cooling Degree Days 0    
Moisture  
Dew Point 10 °F    
Average Humidity 69    
Maximum Humidity 83    
Minimum Humidity 48    
Precipitation  
Precipitation 0.00 in 0.02 in 0.04 in (2011)
Month to date precipitation 0.40 0.25  
Year to date precipitation 0.60 0.77  
Sea Level Pressure  
Sea Level Pressure 30.11 in    
Wind  
Wind Speed 9 mph (East)    
Max Wind Speed 22 mph    
Max Gust Speed 23 mph    
Visibility 10 miles    
Events      
T = Trace of Precipitation, MM = Missing Value Source: NWS Daily Summary

Daily Weather History Graph

Daily Weather History Graph

Search for Another Location

Airport:

Trip Planner

Search our weather history database for the weather conditions in past years. The results will help you decide how hot, cold, wet, or windy it might be!

Date:

Astronomy

Mar. 20, 2013 Rise Set
Actual Time 7:04 AM MDT 7:15 PM MDT
Civil Twilight 6:33 AM MDT 7:46 PM MDT
Nautical Twilight 5:57 AM MDT 8:23 PM MDT
Astronomical Twilight 5:19 AM MDT 9:01 PM MDT
Moon 12:28 PM MDT (3/20) 3:10 AM MDT (3/20)
Length of Visible Light 13h 13m
Length of Day
12h 11m
First Quarter, 60% of the Moon is Illuminated
Mar 20
First Quarter
Mar 27
Full
Apr 2
Last Quarter
Apr 10
New
Apr 18
First Quarter

Hourly Weather History & Observations

Time (MDT) Temp. Windchill Dew Point Humidity Pressure Visibility Wind Dir Wind Speed Gust Speed Precip Events Conditions
12:53 AM -0.0 °F - -5.1 °F 79% 30.46 in 10.0 mi Calm Calm - N/A   Clear
1:53 AM -0.0 °F -13.0 °F -5.1 °F 79% 30.44 in 10.0 mi ENE 6.9 mph - N/A   Clear
2:53 AM 1.0 °F -10.3 °F -2.9 °F 83% 30.41 in 10.0 mi ENE 5.8 mph - N/A   Clear
3:53 AM -0.0 °F -13.0 °F -5.1 °F 79% 30.38 in 10.0 mi East 6.9 mph - N/A   Clear
4:53 AM -0.0 °F -14.2 °F -5.1 °F 79% 30.35 in 10.0 mi East 8.1 mph - N/A   Clear
5:53 AM -0.9 °F -14.1 °F -6.0 °F 79% 30.32 in 10.0 mi East 6.9 mph - N/A   Clear
6:53 AM -2.0 °F -15.4 °F -7.1 °F 79% 30.30 in 10.0 mi East 6.9 mph - N/A   Clear
7:53 AM 1.9 °F -12.9 °F -4.0 °F 76% 30.27 in 10.0 mi East 9.2 mph - N/A   Clear
8:53 AM 3.9 °F -10.4 °F -2.0 °F 76% 30.24 in 10.0 mi ENE 9.2 mph - N/A   Clear
9:53 AM 10.9 °F -4.1 °F 3.0 °F 70% 30.21 in 10.0 mi East 12.7 mph - N/A   Clear
10:53 AM 17.1 °F 3.0 °F 8.1 °F 68% 30.18 in 10.0 mi East 13.8 mph - N/A   Clear
11:53 AM 21.9 °F 7.3 °F 12.9 °F 68% 30.13 in 10.0 mi East 18.4 mph - N/A   Clear
12:53 PM 27.0 °F 13.5 °F 17.1 °F 66% 30.09 in 10.0 mi East 19.6 mph - N/A   Clear
1:53 PM 32.0 °F 20.8 °F 21.0 °F 64% 30.04 in 10.0 mi East 17.3 mph - N/A   Clear
2:53 PM 37.9 °F 28.5 °F 21.9 °F 53% 29.97 in 10.0 mi ESE 17.3 mph - N/A   Clear
3:53 PM 37.9 °F 28.5 °F 19.9 °F 48% 29.95 in 10.0 mi ESE 17.3 mph 23.0 mph N/A   Clear
4:53 PM 37.9 °F 30.0 °F 21.0 °F 51% 29.93 in 10.0 mi East 12.7 mph - N/A   Mostly Cloudy
5:53 PM 37.0 °F 28.1 °F 21.0 °F 52% 29.93 in 10.0 mi East 15.0 mph - N/A   Overcast
6:53 PM 35.1 °F 25.2 °F 23.0 °F 61% 29.91 in 10.0 mi East 16.1 mph - N/A   Overcast
7:53 PM 32.0 °F 21.2 °F 24.1 °F 73% 29.89 in 10.0 mi ENE 16.1 mph - N/A   Overcast
8:53 PM 34.0 °F 27.2 °F 21.9 °F 61% 29.89 in 10.0 mi ENE 8.1 mph 18.4 mph N/A   Overcast
9:53 PM 32.0 °F 20.8 °F 23.0 °F 69% 29.86 in 10.0 mi ENE 17.3 mph - N/A   Overcast
10:53 PM 32.0 °F 21.2 °F 21.9 °F 66% 29.84 in 10.0 mi East 16.1 mph - N/A   Overcast
11:53 PM 30.2 °F 17.1 °F 21.2 °F 69% 29.74 in 10.0 mi East 21.9 mph - N/A   Overcast